Current weather by "City, St" or "zip code"  
 

Current Conditions: City of Colorado Springs Municipal Airport, CO

Mostly Cloudy


47.0 F

Last Updated on Oct 24 2020, 6:54 pm MDT
Humidity: 37%
Wind Speed: E 11.5 mph
Barometer 29.86 in
Dewpoint: 21.9 F
Visibility: 10.00 mi
Precip: --
Heat Index: NA
Wind Chill: 42 F
Current conditions at:

City of Colorado Springs Municipal Airport, CO (KCOS)

Lat: 38.80949 Lon: 104.68873

Local Radar Image active severe weather and emergency alerts image image weather storm and storm spotter reports image weather observation monitoring service image
Local
Radar
Active
Alerts
Storm Reports Obs
Monitoring

Sign-up For Email & Text Message Weather Alert Notification Services



Advertise Here

Observation History for City of Colorado Springs Municipal Airport, CO


Time Wind
(mph)
Vis
(mi)
Weather Precip (in) Temperature (F) Relative
Humidity
Wind
Chill
(F)
Heat
Index
(F)
Pressure
Air Dwpt altimeter
(in)
sea level
(mb)
Rmks
6:54 pm MDT E 11.5 10.00 Mostly Cloudy -- 47.0 21.9 37% 42 NA 29.86 1012.5
5:54 pm MDT E 11.5 10.00 Mostly Cloudy -- 53.0 24.1 32% 49 NA 29.83 1010.7
4:54 pm MDT E 18.4 G 29.9 10.00 Mostly Cloudy -- 59.0 24.1 26% 56 NA 29.79 1008.1
3:54 pm MDT SE 29.9 G 35.7 10.00 Partly Cloudy and Windy -- 68.0 23.0 18% NA NA 29.71 1004.2
2:54 pm MDT SE 21.9 G 32.2 10.00 A Few Clouds and Breezy -- 72.0 23.0 16% NA NA 29.71 1003.2
1:54 pm MDT S 18.4 10.00 A Few Clouds -- 73.0 23.0 15% NA NA 29.75 1004.5
12:54 pm MDT S 19.6 10.00 A Few Clouds -- 71.0 25.0 18% NA NA 29.78 1005.6
11:54 am MDT S 10.4 10.00 A Few Clouds -- 62.0 27.0 26% 61 NA 29.84 1008.8
10:54 am MDT SE 6.9 10.00 A Few Clouds -- 57.0 27.0 32% 56 NA 29.86 1010.4
9:54 am MDT E 6.9 10.00 Mostly Cloudy -- 48.0 26.1 42% 45 NA 29.87 1012.0
8:54 am MDT E 8.1 10.00 Mostly Cloudy -- 41.0 24.1 51% 36 NA 29.88 1013.3
7:54 am MDT NE 6.9 10.00 Mostly Cloudy -- 28.0 19.9 72% 21 NA 29.88 1015.2
6:54 am MDT N 0.0 10.00 A Few Clouds -- 22.0 16.0 78% NA NA 29.89 1016.6
5:54 am MDT W 3.5 10.00 Fair -- 21.0 16.0 81% NA NA 29.90 1016.9
4:54 am MDT N 0.0 10.00 Fair -- 22.0 17.1 82% NA NA 29.92 1017.8
3:54 am MDT NW 3.5 10.00 Fair -- 22.0 17.1 82% NA NA 29.96 1018.8
2:54 am MDT N 3.5 10.00 A Few Clouds -- 21.0 16.0 81% NA NA 30.01 1020.7
1:54 am MDT E 3.5 10.00 A Few Clouds -- 22.0 17.1 82% NA NA 30.05 1022.3
12:54 am MDT SE 4.6 10.00 Mostly Cloudy -- 24.0 17.1 75% 18 NA 30.09 1023.8
11:54 pm MDT SE 11.5 10.00 Overcast -- 25.0 17.1 72% 14 NA 30.12 1024.9
10:54 pm MDT S 17.3 G 24.2 10.00 Overcast -- 26.0 17.1 69% 13 NA 30.14 1025.3
9:54 pm MDT S 18.4 10.00 Overcast -- 27.0 17.1 66% 14 NA 30.17 1025.8
8:54 pm MDT S 13.8 10.00 Overcast -- 28.0 17.1 63% 17 NA 30.18 1026.7

Regional Weather Observation


Meadow Lake Airport, CO (KFLY)

Fair
41.0 F

City of Colorado Springs Municipal Airport, CO (KCOS)

Mostly Cloudy
47.0 F

Elbert Mountain - Monument Pass, CO (KMNH)

Fair
41.0 F

Butts Army Airfield (Fort Carson), CO (KFCS)

Fair
53.0 F

Wilkerson Pass, CO (K4BM)

Fair
43.0 F

ELLICOTT-B AFA, CO (KABH)

Fair
42.0 F